When you browse on this site, cookies collect data to enhance your experience and personalize the content and advertising you see.
Visit our Privacy Policy to learn more. By continuing to use the site, you agree to this use of cookies and data.
  • In Czech Republic
  • List of Countries
  • For 7 days
  • Water Temperature
  • Weather Map
  • Weather Widgets
  • user-avatar
    Login

    Hourly Weather San Luis

    Today, 18 September, Wednesday

    Time Temperature Precipitation Wind Pressure Humidity
    00:00 +14°C° 0 mm 2 mps 697 mmHg 28%
    01:00 +14°C° 0 mm 2 mps 697 mmHg 28%
    02:00 +14°C° 0 mm 2 mps 697 mmHg 29%
    03:00 +12°C° 0 mm 2 mps 697 mmHg 33%
    04:00 +11°C° 0 mm 1 mps 696 mmHg 37%
    05:00 +10°C° 0 mm 1 mps 696 mmHg 41%
    06:00 +12°C° 0 mm 1 mps 696 mmHg 36%
    07:00 +15°C° 0 mm 2 mps 697 mmHg 30%
    08:00 +17°C° 0 mm 3 mps 697 mmHg 25%
    09:00 +19°C° 0 mm 4 mps 697 mmHg 23%
    10:00 +21°C° 0 mm 5 mps 697 mmHg 21%
    11:00 +25°C° 0 mm 5 mps 697 mmHg 18%
    12:00 +26°C° 0 mm 6 mps 696 mmHg 17%
    13:00 +27°C° 0 mm 6 mps 694 mmHg 16%
    14:00 +27°C° 0 mm 7 mps 693 mmHg 15%
    15:00 +27°C° 0 mm 7 mps 692 mmHg 15%
    16:00 +27°C° 0 mm 7 mps 691 mmHg 16%
    17:00 +27°C° 0 mm 6 mps 690 mmHg 16%
    18:00 +23°C° 0 mm 6 mps 689 mmHg 18%
    19:00 +21°C° 0 mm 5 mps 689 mmHg 21%
    20:00 +19°C° 0 mm 4 mps 689 mmHg 24%
    21:00 +19°C° 0 mm 4 mps 689 mmHg 25%
    22:00 +19°C° 0 mm 5 mps 689 mmHg 25%
    23:00 +17°C° 0 mm 6 mps 689 mmHg 25%

    Tomorrow, 19 September, Thursday

    Time Temperature Precipitation Wind Pressure Humidity
    00:00 +17°C° 0 mm 6 mps 689 mmHg 29%
    01:00 +17°C° 0 mm 6 mps 689 mmHg 33%
    02:00 +17°C° 0 mm 7 mps 690 mmHg 37%
    03:00 +13°C° 0 mm 8 mps 691 mmHg 38%
    04:00 +10°C° 0 mm 9 mps 693 mmHg 40%
    05:00 +7°C° 0 mm 10 mps 694 mmHg 42%
    06:00 +7°C° 0 mm 10 mps 695 mmHg 39%
    07:00 +6°C° 0 mm 10 mps 696 mmHg 37%
    08:00 +6°C° 0 mm 9 mps 698 mmHg 34%
    09:00 +7°C° 0 mm 9 mps 698 mmHg 28%
    10:00 +8°C° 0 mm 9 mps 698 mmHg 21%
    11:00 +10°C° 0 mm 9 mps 699 mmHg 14%
    12:00 +11°C° 0 mm 8 mps 699 mmHg 13%
    13:00 +12°C° 0 mm 8 mps 699 mmHg 12%
    14:00 +14°C° 0 mm 7 mps 699 mmHg 11%
    15:00 +14°C° 0 mm 7 mps 698 mmHg 12%
    16:00 +14°C° 0 mm 7 mps 698 mmHg 12%
    17:00 +14°C° 0 mm 6 mps 698 mmHg 12%
    18:00 +11°C° 0 mm 6 mps 698 mmHg 14%
    19:00 +10°C° 0 mm 5 mps 699 mmHg 15%
    20:00 +8°C° 0 mm 4 mps 699 mmHg 17%
    21:00 +8°C° 0 mm 4 mps 699 mmHg 17%
    22:00 +8°C° 0 mm 3 mps 700 mmHg 18%
    23:00 +8°C° 0 mm 3 mps 700 mmHg 18%

    Day after tomorrow, 20 September, Friday

    Time Temperature Precipitation Wind Pressure Humidity
    00:00 +7°C° 0 mm 3 mps 700 mmHg 18%
    01:00 +7°C° 0 mm 3 mps 700 mmHg 18%
    02:00 +7°C° 0 mm 2 mps 700 mmHg 17%
    03:00 +6°C° 0 mm 2 mps 700 mmHg 18%
    04:00 +6°C° 0 mm 2 mps 700 mmHg 18%
    05:00 +6°C° 0 mm 2 mps 700 mmHg 19%
    06:00 +8°C° 0 mm 2 mps 700 mmHg 17%
    07:00 +10°C° 0 mm 2 mps 701 mmHg 15%
    08:00 +13°C° 0 mm 2 mps 702 mmHg 14%
    09:00 +15°C° 0 mm 2 mps 702 mmHg 12%
    10:00 +16°C° 0 mm 2 mps 702 mmHg 11%
    11:00 +18°C° 0 mm 2 mps 703 mmHg 10%
    12:00 +19°C° 0 mm 2 mps 702 mmHg 10%
    13:00 +20°C° 0 mm 3 mps 702 mmHg 10%
    14:00 +21°C° 0 mm 3 mps 701 mmHg 10%
    15:00 +21°C° 0 mm 3 mps 701 mmHg 11%
    16:00 +21°C° 0 mm 3 mps 700 mmHg 11%
    17:00 +21°C° 0 mm 3 mps 700 mmHg 12%
    18:00 +19°C° 0 mm 3 mps 700 mmHg 14%
    19:00 +17°C° 0 mm 3 mps 700 mmHg 16%
    20:00 +13°C° 0 mm 3 mps 700 mmHg 18%
    21:00 +13°C° 0 mm 3 mps 700 mmHg 18%
    22:00 +13°C° 0 mm 4 mps 700 mmHg 18%
    23:00 +12°C° 0 mm 4 mps 700 mmHg 18%

    21 September, Saturday

    Time Temperature Precipitation Wind Pressure Humidity
    00:00 +12°C° 0 mm 4 mps 700 mmHg 19%
    01:00 +12°C° 0 mm 5 mps 700 mmHg 20%
    02:00 +10°C° 0 mm 5 mps 700 mmHg 21%
    03:00 +10°C° 0 mm 6 mps 700 mmHg 21%
    04:00 +10°C° 0 mm 6 mps 700 mmHg 21%
    05:00 +10°C° 0 mm 6 mps 700 mmHg 21%
    06:00 +11°C° 0 mm 6 mps 700 mmHg 20%
    07:00 +13°C° 0 mm 6 mps 701 mmHg 19%
    08:00 +15°C° 0 mm 6 mps 701 mmHg 18%
    09:00 +17°C° 0 mm 5 mps 702 mmHg 17%
    10:00 +19°C° 0 mm 5 mps 702 mmHg 15%
    11:00 +21°C° 0 mm 4 mps 702 mmHg 13%
    12:00 +22°C° 0 mm 4 mps 702 mmHg 12%
    13:00 +24°C° 0 mm 3 mps 701 mmHg 11%
    14:00 +24°C° 0 mm 3 mps 701 mmHg 10%
    15:00 +24°C° 0 mm 2 mps 701 mmHg 11%
    16:00 +24°C° 0 mm 2 mps 700 mmHg 11%
    17:00 +24°C° 0 mm 2 mps 700 mmHg 11%
    18:00 +21°C° 0 mm 3 mps 701 mmHg 15%
    19:00 +18°C° 0 mm 4 mps 701 mmHg 18%
    20:00 +15°C° 0 mm 5 mps 701 mmHg 22%
    21:00 +14°C° 0 mm 6 mps 701 mmHg 23%
    22:00 +14°C° 0 mm 6 mps 702 mmHg 24%
    23:00 +12°C° 0 mm 7 mps 702 mmHg 26%

    22 September, Sunday

    Time Temperature Precipitation Wind Pressure Humidity
    00:00 +11°C° 0 mm 7 mps 702 mmHg 27%
    01:00 +11°C° 0 mm 7 mps 702 mmHg 28%
    02:00 +10°C° 0 mm 7 mps 702 mmHg 29%
    03:00 +10°C° 0 mm 6 mps 702 mmHg 30%
    04:00 +9°C° 0 mm 5 mps 702 mmHg 32%
    05:00 +9°C° 0 mm 5 mps 702 mmHg 33%
    06:00 +10°C° 0 mm 5 mps 703 mmHg 32%
    07:00 +13°C° 0 mm 4 mps 703 mmHg 30%
    08:00 +15°C° 0 mm 4 mps 704 mmHg 28%
    09:00 +17°C° 0 mm 5 mps 704 mmHg 26%
    10:00 +20°C° 0 mm 6 mps 705 mmHg 24%
    11:00 +22°C° 0 mm 6 mps 705 mmHg 22%
    12:00 +23°C° 0 mm 7 mps 704 mmHg 21%
    13:00 +24°C° 0 mm 7 mps 703 mmHg 21%
    14:00 +24°C° 0 mm 8 mps 702 mmHg 20%
    15:00 +24°C° 0 mm 7 mps 701 mmHg 21%
    16:00 +24°C° 0 mm 7 mps 701 mmHg 21%
    17:00 +24°C° 0 mm 7 mps 700 mmHg 22%
    18:00 +22°C° 0 mm 6 mps 700 mmHg 24%
    19:00 +20°C° 0 mm 5 mps 700 mmHg 27%
    20:00 +18°C° 0 mm 4 mps 700 mmHg 29%
    21:00 +16°C° 0 mm 5 mps 700 mmHg 29%
    22:00 +16°C° 0 mm 5 mps 700 mmHg 29%
    23:00 +15°C° 0 mm 6 mps 701 mmHg 29%

    23 September, Monday

    Time Temperature Precipitation Wind Pressure Humidity
    00:00 +15°C° 0 mm 6 mps 701 mmHg 29%
    01:00 +15°C° 0 mm 7 mps 701 mmHg 29%
    02:00 +14°C° 0 mm 7 mps 701 mmHg 29%
    03:00 +14°C° 0 mm 7 mps 701 mmHg 30%
    04:00 +14°C° 0 mm 7 mps 701 mmHg 31%
    05:00 +12°C° 0 mm 7 mps 701 mmHg 32%
    06:00 +14°C° 0 mm 7 mps 702 mmHg 32%
    07:00 +15°C° 0 mm 7 mps 702 mmHg 31%
    08:00 +16°C° 0 mm 7 mps 703 mmHg 31%
    09:00 +19°C° 0 mm 6 mps 703 mmHg 29%
    10:00 +21°C° 0 mm 5 mps 704 mmHg 26%
    11:00 +22°C° 0 mm 4 mps 704 mmHg 24%
    12:00 +23°C° 0 mm 4 mps 704 mmHg 23%
    13:00 +25°C° 0 mm 3 mps 704 mmHg 22%
    14:00 +26°C° 0 mm 2 mps 703 mmHg 21%
    15:00 +26°C° 0 mm 2 mps 703 mmHg 21%
    16:00 +26°C° 0 mm 2 mps 703 mmHg 20%
    17:00 +26°C° 0 mm 1 mps 702 mmHg 20%
    18:00 +24°C° 0 mm 2 mps 703 mmHg 24%
    19:00 +20°C° 0 mm 2 mps 703 mmHg 27%
    20:00 +18°C° 0 mm 3 mps 703 mmHg 31%
    21:00 +18°C° 0 mm 3 mps 703 mmHg 33%
    22:00 +17°C° 0 mm 3 mps 703 mmHg 34%
    23:00 +17°C° 0 mm 3 mps 703 mmHg 36%
    Show more